When you browse on this site, cookies collect data to enhance your experience and personalize the content and advertising you see.
Visit our Privacy Policy to learn more. By continuing to use the site, you agree to this use of cookies and data.

Hourly Weather Vina del Mar

Today, 9 July, Thursday

Time Temperature Precipitation Wind Pressure Humidity
00:00 +9°C° 0 mm 2 mps 750 mmHg 82%
01:00 +9°C° 0 mm 2 mps 750 mmHg 80%
02:00 +9°C° 0 mm 3 mps 750 mmHg 80%
03:00 +8°C° 0 mm 3 mps 749 mmHg 79%
04:00 +8°C° 0 mm 3 mps 749 mmHg 79%
05:00 +8°C° 0 mm 3 mps 749 mmHg 79%
06:00 +8°C° 0 mm 3 mps 749 mmHg 79%
07:00 +8°C° 0 mm 3 mps 749 mmHg 79%
08:00 +10°C° 0 mm 3 mps 749 mmHg 74%
09:00 +12°C° 0 mm 3 mps 749 mmHg 68%
10:00 +14°C° 0 mm 3 mps 749 mmHg 62%
11:00 +15°C° 0 mm 4 mps 749 mmHg 60%
12:00 +17°C° 0 mm 4 mps 749 mmHg 58%
13:00 +17°C° 0 mm 5 mps 748 mmHg 55%
14:00 +17°C° 0 mm 4 mps 748 mmHg 60%
15:00 +15°C° 0 mm 4 mps 748 mmHg 65%
16:00 +15°C° 0 mm 4 mps 747 mmHg 70%
17:00 +13°C° 0 mm 4 mps 748 mmHg 74%
18:00 +11°C° 0 mm 4 mps 748 mmHg 78%
19:00 +10°C° 0 mm 3 mps 748 mmHg 82%
20:00 +9°C° 0 mm 3 mps 748 mmHg 81%
21:00 +9°C° 0 mm 3 mps 748 mmHg 80%
22:00 +9°C° 0 mm 3 mps 748 mmHg 79%
23:00 +9°C° 0 mm 3 mps 748 mmHg 77%

Tomorrow, 10 July, Friday

Time Temperature Precipitation Wind Pressure Humidity
00:00 +9°C° 0 mm 3 mps 748 mmHg 75%
01:00 +8°C° 0 mm 4 mps 748 mmHg 74%
02:00 +8°C° 0 mm 4 mps 748 mmHg 75%
03:00 +7°C° 0 mm 4 mps 748 mmHg 76%
04:00 +7°C° 0 mm 4 mps 748 mmHg 76%
05:00 +7°C° 0 mm 4 mps 748 mmHg 76%
06:00 +7°C° 0 mm 4 mps 748 mmHg 76%
07:00 +7°C° 0 mm 4 mps 749 mmHg 75%
08:00 +10°C° 0 mm 4 mps 749 mmHg 70%
09:00 +12°C° 0 mm 4 mps 749 mmHg 65%
10:00 +14°C° 0 mm 4 mps 749 mmHg 61%
11:00 +17°C° 0 mm 4 mps 748 mmHg 58%
12:00 +18°C° 0 mm 4 mps 748 mmHg 56%
13:00 +19°C° 0 mm 5 mps 748 mmHg 54%
14:00 +17°C° 0 mm 5 mps 748 mmHg 60%
15:00 +16°C° 0 mm 5 mps 747 mmHg 67%
16:00 +15°C° 0 mm 4 mps 747 mmHg 73%
17:00 +14°C° 0 mm 4 mps 747 mmHg 77%
18:00 +12°C° 0 mm 4 mps 747 mmHg 81%
19:00 +11°C° 0 mm 4 mps 747 mmHg 84%
20:00 +11°C° 0 mm 4 mps 748 mmHg 83%
21:00 +11°C° 0 mm 4 mps 748 mmHg 81%
22:00 +11°C° 0 mm 3 mps 748 mmHg 80%
23:00 +10°C° 0 mm 3 mps 748 mmHg 79%

Day after tomorrow, 11 July, Saturday

Time Temperature Precipitation Wind Pressure Humidity
00:00 +10°C° 0 mm 3 mps 747 mmHg 79%
01:00 +10°C° 0 mm 3 mps 747 mmHg 78%
02:00 +10°C° 0 mm 3 mps 747 mmHg 78%
03:00 +10°C° 0 mm 4 mps 747 mmHg 79%
04:00 +10°C° 0 mm 4 mps 747 mmHg 79%
05:00 +8°C° 0 mm 4 mps 747 mmHg 79%
06:00 +8°C° 0 mm 4 mps 747 mmHg 78%
07:00 +8°C° 0 mm 4 mps 747 mmHg 78%
08:00 +12°C° 0 mm 4 mps 747 mmHg 71%
09:00 +14°C° 0 mm 4 mps 748 mmHg 65%
10:00 +17°C° 0 mm 4 mps 748 mmHg 58%
11:00 +18°C° 0 mm 4 mps 747 mmHg 55%
12:00 +19°C° 0 mm 5 mps 747 mmHg 52%
13:00 +20°C° 0 mm 5 mps 747 mmHg 48%
14:00 +19°C° 0 mm 5 mps 747 mmHg 55%
15:00 +17°C° 0 mm 5 mps 747 mmHg 61%
16:00 +16°C° 0 mm 5 mps 747 mmHg 67%
17:00 +14°C° 0 mm 5 mps 747 mmHg 71%
18:00 +13°C° 0 mm 4 mps 747 mmHg 75%
19:00 +12°C° 0 mm 4 mps 747 mmHg 78%
20:00 +12°C° 0 mm 4 mps 747 mmHg 76%
21:00 +12°C° 0 mm 4 mps 747 mmHg 74%
22:00 +12°C° 0 mm 4 mps 747 mmHg 71%
23:00 +11°C° 0 mm 4 mps 747 mmHg 72%

12 July, Sunday

Time Temperature Precipitation Wind Pressure Humidity
00:00 +11°C° 0 mm 4 mps 747 mmHg 72%
01:00 +11°C° 0 mm 4 mps 747 mmHg 73%
02:00 +11°C° 0 mm 4 mps 747 mmHg 72%
03:00 +11°C° 0 mm 4 mps 747 mmHg 72%
04:00 +11°C° 0 mm 4 mps 746 mmHg 71%
05:00 +11°C° 0 mm 4 mps 746 mmHg 68%
06:00 +11°C° 0 mm 4 mps 747 mmHg 65%
07:00 +11°C° 0 mm 4 mps 747 mmHg 62%
08:00 +14°C° 0 mm 4 mps 747 mmHg 57%
09:00 +17°C° 0 mm 4 mps 747 mmHg 52%
10:00 +20°C° 0 mm 4 mps 747 mmHg 46%
11:00 +20°C° 0 mm 5 mps 746 mmHg 46%
12:00 +21°C° 0 mm 5 mps 746 mmHg 45%
13:00 +22°C° 0 mm 6 mps 745 mmHg 45%
14:00 +21°C° 0 mm 5 mps 745 mmHg 51%
15:00 +19°C° 0 mm 5 mps 745 mmHg 58%
16:00 +17°C° 0 mm 5 mps 745 mmHg 65%
17:00 +16°C° 0 mm 5 mps 745 mmHg 68%
18:00 +14°C° 0 mm 5 mps 745 mmHg 71%
19:00 +13°C° 0 mm 5 mps 746 mmHg 73%
20:00 +13°C° 0 mm 4 mps 746 mmHg 70%
21:00 +13°C° 0 mm 4 mps 745 mmHg 66%
22:00 +13°C° 0 mm 4 mps 745 mmHg 63%
23:00 +13°C° 0 mm 4 mps 745 mmHg 61%

13 July, Monday

Time Temperature Precipitation Wind Pressure Humidity
00:00 +13°C° 0 mm 4 mps 745 mmHg 59%
01:00 +13°C° 0 mm 4 mps 745 mmHg 58%
02:00 +13°C° 0 mm 4 mps 745 mmHg 57%
03:00 +13°C° 0 mm 4 mps 745 mmHg 56%
04:00 +13°C° 0 mm 4 mps 745 mmHg 56%
05:00 +13°C° 0 mm 4 mps 745 mmHg 54%
06:00 +13°C° 0 mm 4 mps 745 mmHg 52%
07:00 +13°C° 0 mm 4 mps 745 mmHg 50%
08:00 +17°C° 0 mm 3 mps 746 mmHg 47%
09:00 +19°C° 0 mm 3 mps 746 mmHg 43%
10:00 +22°C° 0 mm 3 mps 746 mmHg 40%
11:00 +24°C° 0 mm 3 mps 746 mmHg 40%
12:00 +24°C° 0 mm 3 mps 745 mmHg 40%
13:00 +25°C° 0 mm 3 mps 745 mmHg 40%
14:00 +22°C° 0 mm 3 mps 745 mmHg 49%
15:00 +20°C° 0 mm 3 mps 745 mmHg 57%
16:00 +18°C° 0 mm 2 mps 745 mmHg 66%
17:00 +17°C° 0 mm 2 mps 745 mmHg 71%
18:00 +15°C° 0 mm 1 mps 745 mmHg 75%
19:00 +13°C° 0 mm 1 mps 745 mmHg 80%
20:00 +13°C° 0 mm 1 mps 745 mmHg 81%
21:00 +12°C° 0 mm 1 mps 745 mmHg 81%
22:00 +12°C° 0 mm 2 mps 745 mmHg 82%
23:00 +12°C° 0 mm 2 mps 745 mmHg 83%

14 July, Tuesday

Time Temperature Precipitation Wind Pressure Humidity
00:00 +12°C° 0 mm 2 mps 745 mmHg 84%
01:00 +10°C° 0 mm 2 mps 745 mmHg 85%
02:00 +10°C° 0 mm 2 mps 745 mmHg 86%
03:00 +10°C° 0 mm 2 mps 744 mmHg 86%
04:00 +11°C° 0 mm 1 mps 744 mmHg 87%
05:00 +11°C° 0 mm 1 mps 744 mmHg 88%
06:00 +11°C° 0 mm 1 mps 744 mmHg 88%
07:00 +11°C° 0 mm 1 mps 745 mmHg 88%
08:00 +12°C° 0 mm 1 mps 745 mmHg 85%
09:00 +13°C° 0 mm 1 mps 745 mmHg 83%
10:00 +14°C° 0 mm 1 mps 745 mmHg 80%
11:00 +14°C° 0 mm 2 mps 745 mmHg 78%
12:00 +15°C° 0 mm 2 mps 745 mmHg 77%
13:00 +16°C° 0 mm 2 mps 744 mmHg 75%
14:00 +15°C° 0 mm 2 mps 744 mmHg 78%
15:00 +15°C° 0 mm 2 mps 744 mmHg 81%
16:00 +14°C° 0 mm 2 mps 744 mmHg 84%
17:00 +13°C° 0 mm 2 mps 744 mmHg 87%
18:00 +12°C° 0 mm 2 mps 744 mmHg 91%
19:00 +10°C° 0 mm 1 mps 744 mmHg 95%
20:00 +10°C° 0 mm 2 mps 745 mmHg 95%
21:00 +10°C° 0 mm 2 mps 745 mmHg 95%
22:00 +10°C° 0 mm 2 mps 745 mmHg 95%
23:00 +10°C° 0 mm 2 mps 745 mmHg 94%
Show more